Weather observations for the past three days for
Texarkana, Texarkana Regional-Webb Field
Imperial (Metric)
Date Time (cdt) Wind (mph) Vis. (mi.) Weather Sky Cond. Temperature (ºF) Relative Humidity Wind Chill (°F) Heat Index (°F) Pressure Precipitation (in)
Air Dwpt 6 hour altimeter (in) sea level (mb) 1 hr 3 hr 6 hr
Max. Min.
15 05:53 SW 7 10.00 Fair CLR 79 73.9 85% 83 30.04 1016.4
15 04:53 S 7 10.00 Partly Cloudy SCT070 80.1 73.9 82% 85 30.03 1016.1
15 03:53 S 8 10.00 Fair CLR 81 73.9 79% 86 30.01 1015.7
15 02:53 S 8 10.00 Fair CLR 81 75 82% 87 30.02 1015.8
15 01:53 S 8 10.00 Fair CLR 82 73.9 77% 88 30.03 1016.4
15 00:53 SW 7 10.00 Fair CLR 82.9 73.9 93 82.9 74% 89 30.05 1016.8
14 23:53 S 7 10.00 Fair CLR 84 75 74% 92 30.04 1016.6
14 22:53 S 6 10.00 Fair CLR 84.9 75 72% 93 30.03 1016.4
14 21:53 S 5 10.00 Fair CLR 84.9 75 72% 93 30.03 1016.2
14 20:53 S 6 10.00 Fair CLR 87.1 75 67% 97 30.03 1016.2
14 19:53 S 7 10.00 Fair CLR 90 75 62% 100 30.04 1016.4
14 18:53 S 7 10.00 Fair CLR 93 73.9 97 93 54% 103 30.04 1016.7
14 17:53 S 10 10.00 Partly Cloudy FEW041 SCT070 93.9 73.9 52% 104 30.04 1016.5
14 16:53 SW 7 10.00 A Few Clouds FEW050 93.9 72 49% 102 30.04 1016.6
14 15:53 Vrbl 6 10.00 Partly Cloudy SCT047 SCT060 95 73 49% 105 30.06 1017.3
14 14:53 SW 10 10.00 A Few Clouds FEW045 96.1 72 46% 105 30.08 1017.8
14 13:53 SW 10 10.00 Fair CLR 95 73 49% 105 30.1 1018.7
14 12:53 SW 6 10.00 A Few Clouds FEW033 93 73 93.9 77 52% 102 30.13 1019.5
14 11:53 S 7 10.00 Fair CLR 91.9 72 52% 100 30.14 1020.1
14 10:53 SW 7 10.00 Fair CLR 90 71.1 54% 96 30.16 1020.5
14 09:53 Vrbl 7 10.00 Fair CLR 88 72 59% 95 30.16 1020.8
14 08:53 SW 5 10.00 Fair CLR 84 73 70% 90 30.17 1021.2
14 07:53 SW 7 10.00 Fair CLR 81 71.1 72% 85 30.16 1020.8
14 06:53 SW 5 10.00 Fair CLR 77 71.1 80.1 75.9 82% 79 30.15 1020.5
14 05:53 S 6 10.00 Fair CLR 77 71.1 82% 79 30.14 1020.1
14 04:53 SW 7 10.00 Fair CLR 77 71.1 82% 79 30.13 1019.6
14 03:53 SW 6 10.00 Fair CLR 77 71.1 82% 79 30.12 1019.2
14 02:53 SW 5 10.00 Fair CLR 78.1 71.1 79% 80 30.12 1019.4
14 01:53 SW 7 10.00 Fair CLR 79 72 79% 82 30.13 1019.8
14 00:53 SW 7 10.00 Fair CLR 80.1 73 93 80.1 79% 84 30.14 1020.1
13 23:53 SW 7 10.00 Fair CLR 81 73.9 79% 86 30.15 1020.2
13 22:53 S 7 10.00 Fair CLR 82.9 73 72% 89 30.15 1020.2
13 21:53 S 8 10.00 Fair CLR 84 73.9 72% 91 30.14 1019.9
13 20:53 S 7 10.00 Fair CLR 84.9 75 72% 93 30.13 1019.7
13 19:53 S 6 10.00 Fair CLR 88 73.9 63% 97 30.14 1020.0
13 18:53 S 8 10.00 Fair CLR 93 72 97 91.9 50% 101 30.13 1019.7
13 17:53 S 8 10.00 Partly Cloudy FEW050 SCT065 93.9 71.1 48% 101 30.12 1019.1
13 16:53 Vrbl 3 10.00 Fair CLR 93.9 70 46% 100 30.12 1019.4
13 15:53 S 9 10.00 Fair CLR 96.1 66.9 39% 100 30.15 1020.1
13 14:53 S 7 10.00 Fair CLR 95 70 44% 101 30.16 1020.6
13 13:53 S 8 10.00 A Few Clouds FEW042 95 71.1 46% 102 30.17 1021.1
13 12:53 Vrbl 3 10.00 Partly Cloudy SCT038 93 71.1 93.9 78.1 49% 100 30.2 1021.8
13 10:53 NW 8 10.00 Fair CLR 91 72 54% 99 30.2 1021.9
13 09:53 SW 8 10.00 Fair CLR 88 71.1 57% 94 30.19 1021.9
13 08:53 W 12 10.00 Fair CLR 84.9 72 65% 91 30.19 1021.7
13 07:53 W 7 10.00 Fair CLR 82 73.9 77% 88 30.19 1021.7
13 06:53 SW 3 8.00 Fair CLR 78.1 73 81 77 85% 81 30.16 1020.9
13 05:53 SW 3 10.00 Fair CLR 77 73 88% 78 30.15 1020.3
13 04:53 S 6 10.00 Fair CLR 78.1 73 85% 81 30.13 1019.7
13 03:53 S 5 10.00 Fair CLR 79 73 82% 82 30.12 1019.3
13 02:53 SW 5 10.00 Fair CLR 79 73 82% 82 30.12 1019.1
13 01:53 SW 5 10.00 Fair CLR 80.1 73 79% 84 30.12 1019.3
13 00:53 S 6 10.00 Fair CLR 81 73 90 81 77% 86 30.13 1019.7
12 23:53 S 8 10.00 Fair CLR 82.9 72 70% 88 30.12 1019.3
12 22:53 S 7 10.00 Fair CLR 84 72 67% 90 30.1 1018.6
12 21:53 S 5 10.00 Fair CLR 82 73 74% 87 30.08 1017.9
12 20:53 SE 5 10.00 Fair CLR 82.9 73 72% 89 30.07 1017.7
12 19:53 SE 3 10.00 Fair CLR 87.1 73 63% 95 30.07 1017.8
12 18:53 S 3 10.00 Fair CLR 89.1 73.9 97 89.1 61% 98 30.07 1017.7
12 17:53 S 6 10.00 Fair CLR 93.9 70 46% 100 30.06 1017.4
12 16:53 Vrbl 5 10.00 Fair CLR 95 69.1 43% 101 30.07 1017.7
12 15:53 S 7 10.00 Fair CLR 96.1 69.1 41% 102 30.08 1018.0
12 14:53 SE 6 10.00 Fair CLR 95 69.1 43% 101 30.09 1018.3
12 12:53 SE 8 10.00 Fair CLR 95 71.1 95 75.9 46% 102 30.11 1018.9
12 11:53 SE 7 10.00 Fair CLR 93 71.1 49% 100 30.11 1019.0
12 10:53 S 7 10.00 Fair CLR 91.9 71.1 51% 99 30.12 1019.1
12 09:53 S 9 10.00 Fair CLR 90 71.1 54% 96 30.11 1019.1
12 08:53 Vrbl 3 10.00 Fair CLR 86 73 65% 93 30.11 1019.0
12 07:53 Calm 10.00 Fair CLR 80.1 72 76% 84 30.1 1018.6
12 06:53 Calm 8.00 Fair CLR 75.9 70 81 75 82% 77 30.08 1018.0
Date Time (cdt) Wind (mph) Vis. (mi.) Weather Sky Cond. Air Dwpt Max. Min. Relative Humidity Wind Chill (°F) Heat Index (°F) altimeter (in) sea level (mb) 1 hr 3 hr 6 hr
6 hour
Temperature (ºF) Pressure Precipitation (in)